Location: *
(0.1100°N, 5.5000°E)
Time: 06:57:38
(UTC+00:00)

deb Kosmos-397 - Visible Passes

Search period start: 06 December 2023 00:00
Search period end: 16 December 2023 00:00
Orbit: 536 x 1461 km, 65.6° (Epoch: 05 December)

Date Brightness Start Highest point End Pass type
(mag) Time Alt. Az. Time Alt. Az. Time Alt. Az.
06 Dec ? 19:02:21 10° W 19:04:02 12° WNW 19:05:44 10° NW visible
07 Dec ? 04:31:38 10° NNE 04:38:05 23° ENE 04:44:40 10° ESE visible
08 Dec ? 05:02:27 10° N 05:10:54 52° ENE 05:19:30 10° SE visible
08 Dec ? 18:18:30 10° WSW 18:21:27 20° WNW 18:24:24 10° NNW visible
09 Dec ? 03:50:20 10° NNE 03:55:28 17° ENE 04:00:42 10° ESE visible
10 Dec ? 04:20:14 10° N 04:28:17 40° ENE 04:36:28 10° SE visible
11 Dec ? 03:09:58 10° NE 03:12:46 12° ENE 03:15:35 10° E visible
11 Dec ? 04:52:11 10° NNW 05:01:01 87° ENE 05:09:57 10° SSE visible
12 Dec ? 03:38:09 10° NNE 03:45:35 31° ENE 03:53:08 10° SE visible
13 Dec ? 04:09:33 10° NNW 04:18:18 69° ENE 04:27:08 10° SSE visible
14 Dec ? 02:56:15 10° NNE 03:02:49 23° ENE 03:09:29 10° ESE visible
14 Dec ? 04:42:22 10° NW 04:51:01 57° WSW 04:59:38 10° S visible
15 Dec ? 03:29:08 19° N 03:35:31 53° ENE 03:44:07 10° SE visible
